sat.trackr.live / text

‹ back to catalog

STARLINK-31192

NORAD 58794 · 2024-012H

PAYLOAD ACTIVE UNKNOWN

§ Identity

Operator
Country
US
Launch date
2024-01-15
Launch site
AFETR
Launch vehicle
Mass (kg)
RCS (m²)

Purposes: comms

External: N2YO · Heavens-Above · Gunter

§ Orbital elements

Epoch: 2026-09-20T22:38:14.004960Z

Period
94.27 min
Inclination
43.0015°
Eccentricity
0.0001419
Mean motion
15.27579757 rev/d
Perigee alt
482.1 km
Apogee alt
484.0 km
Semi-major
6,861.2 km
B*
3.0826e-5
RAAN
142.8810°
Arg perigee
268.5593°
Mean anomaly
91.5096°
Rev number
15,109

§ Raw data

STARLINK-311921 58794U 24012H   26263.94321765  .00000586  00000+0  30826-4 0  99992 58794  43.0015 142.8810 0001419 268.5593  91.5096 15.27579757151096

JSON: /api/v1/satellites/58794 · /tle

For live sub-satellite position, see the globe view (requires WebGL).

§ Visibility from observer

Set your observer location to see the next 7 days of passes ≥ 10°. The values pass through the URL so the page stays shareable.

No JS? Fill the form by hand. The geolocation button needs JavaScript.